Change the Weather History Date:

Tuesday, January 3, 2012

  Actual Average Record
Temperature  
Mean Temperature 20 °F -  
Max Temperature 30 °F 33 °F 62 °F (2000)
Min Temperature 10 °F 13 °F -8 °F (1981)
Degree Days  
Heating Degree Days 44    
Moisture  
Dew Point 3 °F    
Average Humidity 45    
Maximum Humidity 56    
Minimum Humidity 37    
Precipitation  
Precipitation 0.00 in - - ()
Sea Level Pressure  
Sea Level Pressure 29.88 in    
Wind  
Wind Speed 11 mph (NW)    
Max Wind Speed 21 mph    
Max Gust Speed 26 mph    
Visibility 10 miles    
Events      
Averages and records for this station are not official NWS values.
T = Trace of Precipitation, MM = Missing Value Source: NWS Daily Summary

Daily Weather History Graph

Daily Weather History Graph

Search for Another Location

Airport or City:

Trip Planner

Search our weather history database for the weather conditions in past years. The results will help you decide how hot, cold, wet, or windy it might be!

Date:

Astronomy

Jan. 03, 2012 Rise Set
Actual Time 7:16 AM EST 4:24 PM EST
Civil Twilight 6:44 AM EST 4:56 PM EST
Nautical Twilight 6:09 AM EST 5:31 PM EST
Astronomical Twilight 5:34 AM EST 6:06 PM EST
Moon 12:12 PM EST (1/3) 2:02 AM EST (1/3)
Length of Visible Light 10h 11m
Length of Day
9h 07m
Waxing Gibbous, 72% of the Moon is Illuminated
Jan 3
Waxing Gibbous
Jan 9
Full
Jan 16
Last Quarter
Jan 23
New
Jan 30
First Quarter

Hourly Weather History & Observations

Time (EST) Temp. Windchill Dew Point Humidity Pressure Visibility Wind Dir Wind Speed Gust Speed Precip Events Conditions
12:51 AM 30.0 °F 23.2 °F 12.0 °F 47% 29.72 in 10.0 mi West 6.9 mph - N/A   Clear
1:51 AM 30.0 °F 23.2 °F 13.1 °F 49% 29.74 in 10.0 mi Variable 6.9 mph - N/A   Partly Cloudy
2:51 AM 29.1 °F 20.6 °F 13.1 °F 51% 29.74 in 10.0 mi WNW 9.2 mph - N/A   Partly Cloudy
3:51 AM 28.0 °F 17.0 °F 9.1 °F 45% 29.74 in 10.0 mi WNW 13.8 mph - N/A   Clear
4:51 AM 27.1 °F 18.2 °F 7.2 °F 43% 29.75 in 10.0 mi WNW 9.2 mph - N/A   Clear
5:51 AM 26.1 °F 20.5 °F 8.1 °F 47% 29.78 in 10.0 mi WNW 4.6 mph - N/A   Clear
6:51 AM 25.2 °F 15.1 °F 6.1 °F 44% 29.81 in 10.0 mi NW 10.4 mph - N/A   Clear
7:51 AM 24.1 °F 11.0 °F 8.1 °F 51% 29.83 in 10.0 mi NW 16.1 mph 24.2 mph N/A   Partly Cloudy
8:51 AM 24.1 °F 13.1 °F 9.1 °F 53% 29.86 in 10.0 mi NNW 11.5 mph - N/A   Clear
9:51 AM 24.1 °F 12.5 °F 7.2 °F 49% 29.86 in 10.0 mi NNW 12.7 mph - N/A   Overcast
10:51 AM 24.1 °F 11.5 °F 5.0 °F 44% 29.85 in 10.0 mi NW 15.0 mph - N/A   Clear
11:51 AM 23.0 °F 10.6 °F 7.2 °F 51% 29.87 in 10.0 mi NNW 13.8 mph - N/A   Overcast
12:51 PM 24.1 °F 9.4 °F 3.0 °F 40% 29.83 in 10.0 mi NW 20.7 mph 26.5 mph N/A   Scattered Clouds
1:51 PM 24.1 °F 12.0 °F 2.1 °F 39% 29.86 in 10.0 mi NNW 13.8 mph - N/A   Clear
2:51 PM 23.0 °F 11.1 °F 0.1 °F 37% 29.88 in 10.0 mi NNW 12.7 mph 20.7 mph N/A   Clear
3:51 PM 21.0 °F 7.6 °F -1.8 °F 37% 29.93 in 10.0 mi NNW 15.0 mph 23.0 mph N/A   Clear
4:51 PM 19.0 °F 3.6 °F -1.8 °F 40% 29.95 in 10.0 mi NW 18.4 mph - N/A   Clear
5:51 PM 17.1 °F 2.5 °F -4.0 °F 39% 29.99 in 10.0 mi North 15.0 mph - N/A   Clear
6:51 PM 16.2 °F 2.5 °F -4.9 °F 39% 30.03 in 10.0 mi NNW 12.7 mph - N/A   Clear
7:51 PM 14.0 °F -1.4 °F -6.9 °F 39% 30.05 in 10.0 mi NNW 15.0 mph - N/A   Clear
8:51 PM 13.1 °F -2.6 °F -4.9 °F 45% 30.05 in 10.0 mi NNW 15.0 mph - N/A   Clear
9:51 PM 12.0 °F -5.1 °F -4.0 °F 49% 30.04 in 10.0 mi NNW 17.3 mph - N/A   Clear
10:51 PM 11.1 °F -5.1 °F -4.0 °F 51% 30.04 in 10.0 mi NNW 15.0 mph - N/A   Clear
11:51 PM 10.0 °F -7.6 °F -2.9 °F 56% 30.02 in 10.0 mi NNW 17.3 mph - N/A   Clear